Flag for Germany Weather past 2 weeks in Lingen (Ems), Lower Saxony, Germany

Now
54 °F

Scattered clouds.


Feels Like: 54 °F
Forecast: 50 / 63 °F
Wind: 3 mph from Southwest

Location: Meppen

Current Time: Aug 21, 2014 at 12:35:29 PM

Latest Report: Aug 21, 2014 at 10:00 AM


Visibility: 9 mi

Pressure: 30.00 "Hg

Humidity: 79%

Dew point: 48 °F

Location of Lingen (Ems)Location

Historic Weather in Lingen (Ems) — Graph

°F

Lingen (Ems) temperature yesterday

Maximum temperature yesterday: 63 °F (at 4:00 PM)
Minimum temperature yesterday: 48 °F (at 6:00 AM)
Average temperature yesterday: 55 °F

Past Weeks' High & Low Weather Summary

 TemperatureHumidityPressure
High77 °F (Aug 10, 3:00 PM)95% (Aug 8, 6:00 AM)30.04 "Hg (Aug 8, 6:00 AM)
Low46 °F (Aug 21, 7:00 AM)38% (Aug 6, 4:00 PM)29.53 "Hg (Aug 10, 9:00 PM)
Average61 °F77%29.82 "Hg
* Reported Aug 6 10:00 AM — Aug 21 10:00 AM, Lingen (Ems), Weather by CustomWeather, © 2014

Note: Actual official high and low records may vary slightly from our data, if they occured in-between our weather recording intervals... More about our weather records

Advertising

Lingen (Ems) weather history for previous 24 hours

 ConditionsComfort  
Time TempWeatherWind HumidityBarometerVisibility
10:00 AM
Aug 21
54 °FScattered clouds.3 mph79%30.00 "Hg9 mi
9:00 AM52 °FPassing clouds.3 mph87%30.00 "Hg7 mi
8:00 AM48 °FFog.2 mph94%29.99 "Hg4 mi
7:00 AM46 °FFog.2 mph94%29.99 "Hg3 mi
6:00 AM47 °FCool.2 mph94%29.98 "Hg2 mi
4:00 AM48 °FCool.2 mph94%29.99 "Hg3 mi
3:00 AM49 °FCool.2 mph93%29.99 "Hg3 mi
2:00 AM50 °FCool.2 mph91%29.99 "Hg4 mi
1:00 AM52 °FCool.3 mph88%29.99 "Hg5 mi
12:00 AM52 °FCool.2 mph88%29.99 "Hg5 mi
10:00 PM
Aug 20
53 °FCool.2 mph85%29.99 "Hg5 mi
9:00 PM54 °FCool.2 mph78%29.99 "Hg6 mi
7:00 PM60 °FRefreshingly cool.5 mph56%29.97 "Hg7 mi
6:00 PM62 °FMild.6 mph49%29.97 "Hg6 mi
4:00 PM63 °FMild.7 mph51%29.97 "Hg6 mi
3:00 PM61 °FScattered clouds.6 mph58%29.97 "Hg25 mi
2:00 PM53 °FOvercast.5 mph82%29.99 "Hg19 mi
1:00 PM62 °FPartly sunny.7 mph54%29.96 "Hg7 mi
12:00 PM61 °FPassing clouds.6 mph60%29.96 "Hg28 mi
Weather by CustomWeather, © 2014

See weather overviewHow to use our weather pages